TimeAKST,TemperatureF,Dew PointF,Humidity,Sea Level PressureIn,VisibilityMPH,Wind Direction,Wind SpeedMPH,Gust SpeedMPH,PrecipitationIn,Events,Conditions,WindDirDegrees,DateUTC
12:53 AM,28.9,19.9,69,28.98,10.0,SSE,3.5,-,N/A,,Mostly Cloudy,160,2012-02-21 09:53:00
1:53 AM,30.0,21.9,72,29.01,10.0,South,3.5,-,N/A,,Mostly Cloudy,170,2012-02-21 10:53:00
2:35 AM,30.2,23.0,75,29.02,10.0,South,5.8,-,N/A,,Overcast,180,2012-02-21 11:35:00
2:53 AM,30.0,21.9,72,29.04,10.0,South,6.9,-,N/A,,Overcast,180,2012-02-21 11:53:00
3:22 AM,30.2,21.2,69,29.04,10.0,South,4.6,-,N/A,,Overcast,170,2012-02-21 12:22:00
3:31 AM,30.2,21.2,69,29.04,10.0,SSE,4.6,-,N/A,,Overcast,160,2012-02-21 12:31:00
3:43 AM,30.2,23.0,75,29.05,10.0,SSE,4.6,-,N/A,,Overcast,150,2012-02-21 12:43:00
3:53 AM,30.0,23.0,75,29.05,10.0,SSE,3.5,-,N/A,,Overcast,160,2012-02-21 12:53:00
4:28 AM,30.2,23.0,75,29.05,10.0,Calm,Calm,-,N/A,,Overcast,0,2012-02-21 13:28:00
4:53 AM,28.9,21.9,75,29.06,10.0,Calm,Calm,-,N/A,,Overcast,0,2012-02-21 13:53:00
5:25 AM,30.2,23.0,75,29.06,10.0,Calm,Calm,-,N/A,,Overcast,0,2012-02-21 14:25:00
5:51 AM,30.2,24.8,80,29.07,4.0,Calm,Calm,-,0.00,Snow,Light Snow,0,2012-02-21 14:51:00
5:53 AM,30.0,24.1,79,29.08,3.0,SSW,3.5,-,0.00,Snow,Light Snow,210,2012-02-21 14:53:00
6:01 AM,28.4,24.8,86,29.07,2.5,SSW,3.5,-,0.00,Snow,Light Snow,200,2012-02-21 15:01:00
6:12 AM,28.4,24.8,86,29.08,1.5,Calm,Calm,-,0.00,Snow,Light Snow,0,2012-02-21 15:12:00
6:53 AM,28.9,27.0,92,29.10,1.5,Calm,Calm,-,0.01,Snow,Light Snow,0,2012-02-21 15:53:00
7:40 AM,28.4,26.6,93,29.10,2.5,Calm,Calm,-,0.01,Snow,Light Snow,0,2012-02-21 16:40:00
7:53 AM,28.9,27.0,92,29.11,2.0,Calm,Calm,-,0.01,Snow,Light Snow,0,2012-02-21 16:53:00
8:19 AM,26.6,24.8,93,29.11,9.0,Calm,Calm,-,0.00,,Mostly Cloudy,0,2012-02-21 17:19:00
8:53 AM,28.0,25.0,88,29.13,6.0,East,3.5,-,0.00,Snow,Light Snow,80,2012-02-21 17:53:00
9:04 AM,28.4,26.6,93,29.12,2.0,East,3.5,-,0.00,Snow,Light Snow,90,2012-02-21 18:04:00
9:53 AM,28.9,27.0,92,29.14,2.0,East,3.5,-,0.01,Snow,Light Snow,90,2012-02-21 18:53:00
10:53 AM,30.9,28.0,89,29.17,2.0,South,6.9,-,0.01,Snow,Light Snow,170,2012-02-21 19:53:00
11:53 AM,32.0,28.0,85,29.19,2.0,Calm,Calm,-,0.00,Snow,Light Snow,0,2012-02-21 20:53:00
1:00 PM,32.0,28.4,87,29.21,1.5,South,6.9,-,0.00,Snow,Light Snow,180,2012-02-21 22:00:00
1:53 PM,32.0,28.0,85,29.24,5.0,South,4.6,-,0.00,Snow,Light Snow,170,2012-02-21 22:53:00
2:53 PM,33.1,27.0,78,29.26,4.0,South,6.9,-,0.00,Snow,Light Snow,170,2012-02-21 23:53:00
3:26 PM,32.0,26.6,80,29.27,2.0,South,8.1,-,0.00,Snow,Light Snow,170,2012-02-22 00:26:00
3:53 PM,32.0,28.0,85,29.29,2.0,South,5.8,-,0.00,Snow,Light Snow,170,2012-02-22 00:53:00
3:56 PM,32.0,28.4,87,29.28,2.0,South,5.8,-,0.00,Snow,Light Snow,170,2012-02-22 00:56:00
4:46 PM,32.0,28.4,87,29.29,6.0,Calm,Calm,-,0.00,Snow,Light Snow,0,2012-02-22 01:46:00
4:53 PM,33.1,28.0,82,29.30,5.0,Calm,Calm,-,0.00,,Overcast,0,2012-02-22 01:53:00
5:53 PM,33.1,24.1,70,29.33,10.0,South,8.1,-,N/A,,Overcast,180,2012-02-22 02:53:00
6:53 PM,32.0,21.9,66,29.36,10.0,South,6.9,-,N/A,,Mostly Cloudy,180,2012-02-22 03:53:00
7:53 PM,30.9,21.0,67,29.39,10.0,South,6.9,-,N/A,,Scattered Clouds,170,2012-02-22 04:53:00
8:53 PM,32.0,19.9,61,29.41,10.0,South,8.1,-,N/A,,Scattered Clouds,180,2012-02-22 05:53:00
9:53 PM,30.9,19.9,64,29.44,10.0,South,8.1,-,N/A,,Mostly Cloudy,170,2012-02-22 06:53:00
10:53 PM,30.9,19.9,64,29.48,10.0,South,6.9,-,N/A,,Mostly Cloudy,170,2012-02-22 07:53:00
11:53 PM,30.9,19.0,61,29.51,10.0,South,5.8,-,N/A,,Scattered Clouds,170,2012-02-22 08:53:00